FDX5025 EBLG-KMEM

Flight info

Callsign FDX5025
Flight time N/A
Altitude 30000
Route BUB L608 DENUT L610 KOPUL Q60 OKSAW DCT TEWXI DCT VATRY DCT RESNO/M082F300 DCT 56N020W 57N030W 57N040W 56N050W DCT JANJO/N0479F300 N714B YBC/N0475F340 DCT POLTY Q804 DERLO DCT WWSHR DCT FLM DCT RAMRD BLUZZ5
Aircraft B77L/H-SDE1E2E3FGHIJ2J3J4J5M1RWXY/LB1D1

Departure

Time 2026-04-30 20:57
Airport Liège Airport (EBLG)

Arrival

Time N/A
Airport Memphis International Airport (KMEM)
Time Latitude Longitude Altitude Speed Heading
2026-04-30 20:19 50.63592 5.44743 621 ft 0 kts 136°
2026-04-30 20:45 50.63630 5.44696 621 ft 4 kts 152°
2026-04-30 20:45 50.63654 5.44679 621 ft 4 kts 163°
2026-04-30 20:45 50.63671 5.44672 621 ft 1 kts 169°
2026-04-30 20:46 50.63674 5.44671 621 ft 0 kts 169°
2026-04-30 20:49 50.63672 5.44671 630 ft 2 kts 173°
2026-04-30 20:49 50.63648 5.44636 621 ft 8 kts 231°
2026-04-30 20:49 50.63613 5.44574 633 ft 8 kts 227°
2026-04-30 20:50 50.63536 5.44451 634 ft 9 kts 225°
2026-04-30 20:50 50.63483 5.44367 640 ft 11 kts 225°
2026-04-30 20:50 50.63427 5.44280 640 ft 11 kts 225°
2026-04-30 20:50 50.63371 5.44191 644 ft 11 kts 227°
2026-04-30 20:51 50.63316 5.44103 645 ft 11 kts 225°
2026-04-30 20:51 50.63206 5.43925 648 ft 11 kts 236°
2026-04-30 20:51 50.63223 5.43839 644 ft 7 kts 338°
2026-04-30 20:52 50.63229 5.43838 644 ft 0 kts 352°
2026-04-30 20:53 50.63260 5.43843 645 ft 8 kts
2026-04-30 20:53 50.63314 5.43850 648 ft 8 kts 345°
2026-04-30 20:53 50.63333 5.43777 649 ft 8 kts 254°
2026-04-30 20:54 50.63211 5.43572 656 ft 19 kts 225°
2026-04-30 20:54 50.63116 5.43418 656 ft 22 kts 225°
2026-04-30 20:54 50.63007 5.43248 661 ft 22 kts 225°
2026-04-30 20:55 50.62797 5.42924 671 ft 15 kts 219°
2026-04-30 20:55 50.62726 5.42873 672 ft 9 kts 225°
2026-04-30 20:55 50.62729 5.42818 672 ft 2 kts 332°
2026-04-30 20:56 50.62772 5.42875 670 ft 9 kts 45°
2026-04-30 20:56 50.62851 5.43000 671 ft 35 kts 45°
2026-04-30 20:56 50.64000 5.44800 643 ft 191 kts 43°
2026-04-30 20:57 50.64974 5.46235 1357 ft 192 kts 49°
2026-04-30 20:57 50.65901 5.47702 2020 ft 185 kts 55°
2026-04-30 20:57 50.66801 5.49174 2308 ft 191 kts 55°
2026-04-30 20:58 50.68782 5.52399 2675 ft 214 kts 54°
2026-04-30 20:58 50.69844 5.54109 2990 ft 222 kts 53°
2026-04-30 20:58 50.70941 5.55863 3406 ft 227 kts 53°
2026-04-30 20:58 50.72199 5.57424 3689 ft 241 kts 27°
2026-04-30 20:59 50.75483 5.56266 4188 ft 266 kts 307°
2026-04-30 20:59 50.76257 5.53711 4523 ft 265 kts 279°
2026-04-30 21:00 50.77092 5.47780 5098 ft 284 kts 282°
2026-04-30 21:00 50.78109 5.41640 6076 ft 292 kts 281°
2026-04-30 21:01 50.78993 5.35356 7172 ft 295 kts 281°
2026-04-30 21:01 50.79435 5.32179 7673 ft 297 kts 281°
2026-04-30 21:01 50.80337 5.25752 8674 ft 302 kts 281°
2026-04-30 21:02 50.80789 5.22553 9168 ft 303 kts 281°
2026-04-30 21:02 50.81251 5.19285 9654 ft 306 kts 281°
2026-04-30 21:02 50.81716 5.15992 10152 ft 309 kts 281°
2026-04-30 21:02 50.82183 5.12668 10560 ft 313 kts 281°
2026-04-30 21:03 50.82662 5.09213 10673 ft 330 kts 281°
2026-04-30 21:03 50.83164 5.05572 10817 ft 347 kts 281°
2026-04-30 21:03 50.83690 5.01752 10946 ft 365 kts 281°
2026-04-30 21:03 50.84242 4.97741 11146 ft 380 kts 281°
2026-04-30 21:04 50.84811 4.93597 11561 ft 389 kts 281°
2026-04-30 21:04 50.85382 4.89436 12118 ft 395 kts 281°
2026-04-30 21:04 50.86549 4.80888 13511 ft 400 kts 281°
2026-04-30 21:05 50.87136 4.76567 14173 ft 404 kts 281°
2026-04-30 21:05 50.87728 4.72199 14735 ft 408 kts 281°
2026-04-30 21:05 50.88324 4.67784 15348 ft 411 kts 281°
2026-04-30 21:05 50.88923 4.63344 15970 ft 414 kts 281°
2026-04-30 21:06 50.89523 4.58871 16551 ft 417 kts 281°
2026-04-30 21:06 50.90146 4.54439 17078 ft 418 kts 285°
2026-04-30 21:06 50.91299 4.50192 17362 ft 424 kts 301°
2026-04-30 21:06 50.92896 4.46215 17761 ft 430 kts 303°
2026-04-30 21:07 50.94526 4.42219 18354 ft 433 kts 302°
2026-04-30 21:07 50.96146 4.38184 18933 ft 434 kts 302°
2026-04-30 21:07 50.97753 4.34108 19437 ft 437 kts 301°
2026-04-30 21:07 50.99352 4.29987 19924 ft 440 kts 301°
2026-04-30 21:08 51.00949 4.25827 20398 ft 443 kts 301°
2026-04-30 21:08 51.02554 4.21624 20889 ft 446 kts 301°
2026-04-30 21:08 51.04141 4.17451 21354 ft 449 kts 301°
2026-04-30 21:08 51.05761 4.13186 21824 ft 452 kts 301°
2026-04-30 21:09 51.07390 4.08892 22284 ft 455 kts 301°
2026-04-30 21:09 51.09030 4.04564 22739 ft 458 kts 301°
2026-04-30 21:09 51.10679 4.00205 23217 ft 461 kts 301°
2026-04-30 21:09 51.12337 3.95817 23653 ft 464 kts 301°
2026-04-30 21:10 51.14002 3.91402 24055 ft 467 kts 301°
2026-04-30 21:10 51.15677 3.86953 24456 ft 469 kts 301°
2026-04-30 21:10 51.17334 3.82544 24856 ft 471 kts 301°
2026-04-30 21:10 51.19022 3.78048 25228 ft 474 kts 301°
2026-04-30 21:11 51.20718 3.73521 25550 ft 478 kts 301°
2026-04-30 21:11 51.22326 3.68855 25903 ft 480 kts 295°
2026-04-30 21:11 51.23608 3.63932 26291 ft 482 kts 289°
2026-04-30 21:11 51.24601 3.58829 26673 ft 483 kts 282°
2026-04-30 21:12 51.25282 3.53577 27054 ft 484 kts 279°
2026-04-30 21:12 51.25921 3.48291 27399 ft 486 kts 280°
2026-04-30 21:12 51.26593 3.42985 27740 ft 489 kts 280°
2026-04-30 21:12 51.27280 3.37730 28090 ft 491 kts 281°
2026-04-30 21:13 51.27981 3.32380 28458 ft 493 kts 280°
2026-04-30 21:13 51.28682 3.27007 28794 ft 496 kts 280°
2026-04-30 21:13 51.29381 3.21615 29251 ft 494 kts 280°
2026-04-30 21:13 51.30072 3.16262 29871 ft 490 kts 280°
2026-04-30 21:14 51.30755 3.10942 30400 ft 488 kts 280°
2026-04-30 21:14 51.31434 3.05633 30764 ft 487 kts 280°
2026-04-30 21:14 51.32109 3.00328 31099 ft 487 kts 280°
2026-04-30 21:14 51.32782 2.95024 31451 ft 486 kts 280°
2026-04-30 21:15 51.33451 2.89735 31810 ft 485 kts 280°
2026-04-30 21:15 51.34118 2.84444 32074 ft 486 kts 279°
2026-04-30 21:15 51.35451 2.73799 32257 ft 495 kts 279°
2026-04-30 21:16 51.36117 2.68403 32590 ft 493 kts 279°
2026-04-30 21:16 51.36773 2.63041 32972 ft 490 kts 279°
2026-04-30 21:16 51.37424 2.57694 33302 ft 489 kts 279°
2026-04-30 21:16 51.38071 2.52358 33566 ft 488 kts 279°
2026-04-30 21:17 51.38716 2.47022 33820 ft 488 kts 279°
2026-04-30 21:17 51.39359 2.41688 34059 ft 487 kts 279°
2026-04-30 21:17 51.40000 2.36357 34204 ft 490 kts 279°
2026-04-30 21:17 51.40633 2.31067 34240 ft 491 kts 279°
2026-04-30 21:18 51.41922 2.20339 34235 ft 489 kts 279°
2026-04-30 21:18 51.43228 2.09687 34238 ft 486 kts 279°
2026-04-30 21:19 51.44515 1.99070 34238 ft 485 kts 279°
2026-04-30 21:19 51.45777 1.88465 34249 ft 484 kts 278°
2026-04-30 21:20 51.47000 1.77910 34244 ft 485 kts 278°
2026-04-30 21:20 51.48214 1.67249 34244 ft 487 kts 278°
2026-04-30 21:21 51.49430 1.56532 34243 ft 489 kts 278°
2026-04-30 21:22 51.51248 1.40382 34245 ft 491 kts 277°
2026-04-30 21:23 51.53640 1.18821 34229 ft 492 kts 277°
2026-04-30 21:23 51.54977 1.02538 34237 ft 489 kts 273°
2026-04-30 21:24 51.55633 0.91675 34231 ft 488 kts 272°
2026-04-30 21:24 51.56295 0.80833 34207 ft 487 kts 272°
2026-04-30 21:25 51.57289 0.64690 34212 ft 485 kts 272°
2026-04-30 21:26 51.58264 0.48519 34215 ft 484 kts 272°
2026-04-30 21:27 51.59215 0.32370 34215 ft 483 kts 272°
2026-04-30 21:27 51.59831 0.21689 34207 ft 483 kts 272°
2026-04-30 21:28 51.60741 0.05606 34212 ft 482 kts 272°
2026-04-30 21:29 51.61583 -0.09635 34257 ft 481 kts 272°
2026-04-30 21:30 51.63195 -0.36358 34212 ft 481 kts 272°
2026-04-30 21:31 51.64779 -0.63079 34210 ft 481 kts 272°
2026-04-30 21:32 51.65697 -0.79167 34205 ft 481 kts 272°
2026-04-30 21:32 51.66196 -0.88062 34199 ft 481 kts 272°
2026-04-30 21:33 51.67077 -1.04103 34193 ft 481 kts 272°
2026-04-30 21:34 51.67652 -1.14773 34185 ft 481 kts 272°
2026-04-30 21:34 51.68501 -1.30888 34189 ft 481 kts 271°
2026-04-30 21:35 51.69054 -1.41625 34180 ft 481 kts 271°
2026-04-30 21:35 51.69597 -1.52349 34196 ft 480 kts 272°
2026-04-30 21:36 51.70186 -1.62972 34175 ft 480 kts 276°
2026-04-30 21:37 51.73281 -1.78321 34182 ft 483 kts 295°
2026-04-30 21:37 51.74819 -1.83134 34188 ft 483 kts 295°
2026-04-30 21:37 51.77883 -1.92765 34184 ft 482 kts 294°
2026-04-30 21:38 51.80864 -2.02461 34184 ft 481 kts 293°
2026-04-30 21:38 51.83344 -2.12398 34180 ft 479 kts 288°
2026-04-30 21:39 51.85613 -2.22520 34185 ft 478 kts 288°
2026-04-30 21:39 51.87886 -2.32639 34187 ft 478 kts 288°
2026-04-30 21:40 51.90185 -2.42742 34182 ft 479 kts 288°
2026-04-30 21:40 51.92477 -2.52791 34180 ft 479 kts 288°
2026-04-30 21:41 51.94778 -2.62921 34170 ft 479 kts 288°
2026-04-30 21:41 51.97069 -2.73066 34166 ft 479 kts 288°
2026-04-30 21:42 51.99348 -2.83203 34199 ft 478 kts 287°
2026-04-30 21:42 52.01601 -2.93280 34191 ft 478 kts 287°
2026-04-30 21:43 52.03481 -3.01725 34154 ft 478 kts 287°
2026-04-30 21:43 52.06112 -3.13603 34156 ft 478 kts 287°
2026-04-30 21:44 52.08349 -3.23756 34166 ft 477 kts 287°
2026-04-30 21:44 52.10564 -3.33856 34146 ft 477 kts 287°
2026-04-30 21:45 52.12782 -3.44019 34157 ft 477 kts 287°
2026-04-30 21:45 52.14991 -3.54192 34142 ft 477 kts 286°
2026-04-30 21:46 52.17192 -3.64381 34149 ft 477 kts 286°
2026-04-30 21:46 52.19016 -3.72865 34153 ft 478 kts 286°
2026-04-30 21:47 52.21558 -3.84746 34128 ft 478 kts 286°
2026-04-30 21:47 52.23737 -3.94981 34151 ft 478 kts 285°
2026-04-30 21:48 52.25545 -4.03512 34131 ft 479 kts 285°
2026-04-30 21:48 52.27712 -4.13791 34127 ft 479 kts 285°
2026-04-30 21:49 52.29873 -4.24092 34124 ft 480 kts 285°
2026-04-30 21:49 52.32375 -4.36082 34120 ft 480 kts 285°
2026-04-30 21:50 52.34157 -4.44669 34122 ft 480 kts 285°
2026-04-30 21:50 52.36294 -4.55012 34127 ft 480 kts 285°
2026-04-30 21:51 52.38421 -4.65363 34119 ft 480 kts 285°
2026-04-30 21:51 52.40536 -4.75707 34120 ft 479 kts 285°
2026-04-30 21:52 52.42626 -4.85983 34116 ft 478 kts 285°
2026-04-30 21:52 52.44716 -4.96316 34121 ft 478 kts 285°
2026-04-30 21:53 52.46797 -5.06656 34133 ft 478 kts 284°
2026-04-30 21:53 52.48871 -5.17018 34132 ft 478 kts 284°
2026-04-30 21:54 52.50937 -5.27393 34124 ft 478 kts 284°
2026-04-30 21:54 52.52982 -5.37715 34125 ft 479 kts 284°
2026-04-30 21:55 52.55047 -5.48109 34125 ft 479 kts 286°
2026-04-30 21:55 52.57830 -5.58116 34136 ft 483 kts 294°
2026-04-30 21:56 52.60952 -5.67916 34124 ft 484 kts 294°
2026-04-30 21:56 52.64061 -5.77752 34120 ft 484 kts 294°
2026-04-30 21:57 52.67115 -5.87558 34120 ft 484 kts 294°
2026-04-30 21:57 52.70165 -5.97437 34122 ft 484 kts 294°
2026-04-30 21:58 52.73208 -6.07339 34112 ft 484 kts 293°
2026-04-30 21:58 52.76245 -6.17264 34133 ft 485 kts 293°
2026-04-30 21:59 52.79281 -6.27222 34112 ft 486 kts 292°
2026-04-30 22:00 52.83805 -6.42134 34129 ft 486 kts 292°
2026-04-30 22:00 52.88344 -6.57187 34124 ft 487 kts 292°
2026-04-30 22:01 52.91367 -6.67266 34113 ft 489 kts 292°
2026-04-30 22:01 52.94389 -6.77386 34106 ft 491 kts 292°
2026-04-30 22:02 52.97389 -6.87474 34096 ft 491 kts 292°
2026-04-30 22:02 53.00405 -6.97656 34093 ft 492 kts 292°
2026-04-30 22:03 53.03414 -7.07860 34091 ft 492 kts 292°
2026-04-30 22:03 53.06413 -7.18072 34094 ft 492 kts 292°
2026-04-30 22:04 53.09386 -7.28244 34096 ft 492 kts 291°
2026-04-30 22:05 53.13856 -7.43616 34086 ft 492 kts 291°
2026-04-30 22:05 53.16823 -7.53876 34088 ft 491 kts 291°
2026-04-30 22:06 53.19758 -7.64072 34086 ft 491 kts 291°
2026-04-30 22:06 53.24725 -7.79007 34085 ft 499 kts 311°
2026-04-30 22:07 53.29950 -7.86633 34075 ft 495 kts 305°
2026-04-30 22:07 53.31832 -7.91379 34087 ft 487 kts 291°
2026-04-30 22:07 53.33241 -7.96527 34090 ft 488 kts 289°
2026-04-30 22:08 53.35937 -8.06962 34090 ft 494 kts 289°
2026-04-30 22:08 53.38764 -8.17491 34084 ft 497 kts 290°
2026-04-30 22:09 53.41689 -8.27989 34108 ft 498 kts 290°
2026-04-30 22:09 53.44648 -8.38526 34093 ft 500 kts 290°
2026-04-30 22:10 53.47601 -8.49103 34079 ft 501 kts 290°
2026-04-30 22:10 53.50523 -8.59649 34083 ft 502 kts 290°
2026-04-30 22:11 53.54906 -8.75612 34084 ft 502 kts 290°
2026-04-30 22:12 53.57815 -8.86279 34093 ft 502 kts 289°
2026-04-30 22:12 53.60719 -8.96976 34084 ft 503 kts 289°
2026-04-30 22:13 53.63603 -9.07634 34078 ft 504 kts 289°
2026-04-30 22:13 53.66499 -9.18383 34074 ft 504 kts 289°
2026-04-30 22:14 53.69384 -9.29153 34078 ft 504 kts 289°
2026-04-30 22:14 53.72240 -9.39872 34079 ft 504 kts 289°
2026-04-30 22:15 53.75111 -9.50694 34072 ft 506 kts 289°
2026-04-30 22:15 53.77979 -9.61547 34075 ft 506 kts 289°
2026-04-30 22:16 53.80841 -9.72430 34075 ft 506 kts 289°
2026-04-30 22:17 53.86518 -9.94184 34065 ft 507 kts 289°
2026-04-30 22:17 53.90762 -10.10608 34072 ft 507 kts 288°
2026-04-30 22:18 53.94989 -10.27078 34070 ft 507 kts 288°
2026-04-30 22:19 53.99174 -10.43506 34068 ft 507 kts 288°
2026-04-30 22:20 54.03351 -10.60032 34066 ft 507 kts 288°
2026-04-30 22:20 54.07514 -10.76616 34077 ft 509 kts 288°
2026-04-30 22:21 54.10263 -10.87629 34078 ft 509 kts 288°
2026-04-30 22:21 54.13031 -10.98770 34079 ft 510 kts 288°
2026-04-30 22:22 54.15790 -11.09929 34077 ft 511 kts 288°
2026-04-30 22:22 54.18545 -11.21134 34077 ft 512 kts 288°
2026-04-30 22:23 54.21288 -11.32353 34076 ft 512 kts 288°
2026-04-30 22:23 54.24002 -11.43517 34082 ft 511 kts 288°
2026-04-30 22:24 54.26713 -11.54733 34074 ft 510 kts 288°
2026-04-30 22:24 54.29405 -11.65940 34079 ft 508 kts 288°
2026-04-30 22:25 54.32073 -11.77112 34084 ft 507 kts 287°
2026-04-30 22:25 54.34717 -11.88242 34091 ft 507 kts 288°
2026-04-30 22:26 54.38694 -12.05054 34093 ft 508 kts 288°
2026-04-30 22:27 54.41341 -12.16304 34091 ft 508 kts 287°
2026-04-30 22:27 54.45294 -12.33221 34098 ft 509 kts 287°
2026-04-30 22:28 54.49209 -12.50111 34105 ft 509 kts 288°
2026-04-30 22:29 54.54410 -12.72770 34102 ft 508 kts 287°
2026-04-30 22:31 54.63323 -13.12224 34119 ft 502 kts 288°
2026-04-30 22:32 54.69549 -13.40232 34126 ft 497 kts 288°
2026-04-30 22:33 54.75653 -13.68047 34127 ft 495 kts 288°
2026-04-30 22:35 54.81662 -13.95770 34127 ft 490 kts 288°
2026-04-30 22:36 54.87571 -14.23400 34133 ft 487 kts 288°
2026-04-30 22:37 54.92221 -14.45411 34153 ft 487 kts 289°
2026-04-30 22:38 54.96852 -14.67566 34157 ft 488 kts 289°
2026-04-30 22:39 55.00304 -14.84244 34164 ft 488 kts 288°
2026-04-30 22:40 55.07393 -15.17179 34181 ft 483 kts 290°
2026-04-30 22:41 55.13529 -15.44511 34183 ft 483 kts 290°
2026-04-30 22:43 55.20696 -15.77226 34190 ft 476 kts 291°
2026-04-30 22:44 55.25357 -15.98767 34178 ft 474 kts 291°
2026-04-30 22:45 55.32260 -16.31097 34209 ft 472 kts 291°
2026-04-30 22:47 55.39069 -16.63491 34230 ft 470 kts 291°
2026-04-30 22:48 55.43528 -16.84998 34237 ft 467 kts 290°
2026-04-30 22:49 55.50089 -17.17068 34233 ft 460 kts 291°
2026-04-30 22:51 55.56506 -17.48941 34261 ft 462 kts 290°
2026-04-30 22:52 55.59709 -17.65046 34261 ft 464 kts 291°
2026-04-30 22:53 55.63944 -17.86538 34257 ft 464 kts 290°
2026-04-30 22:53 55.67106 -18.02749 34265 ft 464 kts 291°
2026-04-30 22:55 55.72303 -18.29694 34270 ft 463 kts 291°
2026-04-30 22:56 55.76422 -18.51312 34280 ft 462 kts 290°
2026-04-30 22:57 55.81505 -18.78344 34284 ft 463 kts 290°
2026-04-30 22:58 55.85541 -19.00084 34283 ft 463 kts 290°
2026-04-30 22:59 55.91503 -19.32671 34285 ft 461 kts 289°